Location: Corralito
(10.2667°N, 66.9500°W)
Time: 22:55:17
(UTC+00:00)

SL-4 R/B - Visible Passes

Search period start: 04 December 2023 00:00
Search period end: 14 December 2023 00:00
Orbit: 417 x 620 km, 51.6° (Epoch: 04 December)

Date Brightness Start Highest point End Pass type
(mag) Time Alt. Az. Time Alt. Az. Time Alt. Az.
04 Dec 3.4 08:41:00 32° NE 08:41:28 33° NE 08:45:30 10° ESE visible
05 Dec 3.6 08:26:48 35° E 08:26:48 35° E 08:30:04 10° ESE visible
05 Dec 4.2 10:02:35 10° W 10:04:46 13° SW 10:06:57 10° SSW visible
06 Dec 4.3 08:12:33 25° ESE 08:12:33 25° ESE 08:14:35 10° SE visible
06 Dec 4.3 09:47:57 10° WSW 09:49:10 11° SW 09:50:23 10° SW visible
07 Dec 5.0 07:58:16 15° SE 07:58:16 15° SE 07:59:02 10° SE visible
